Location: Diebersbach
(48.5163°N, 8.0558°E)
Time: 13:46:01
(UTC+00:00)

DELTA 2 R/B (1) - Pass Details

Date: 20 June 2021
Orbit: 789 x 804 km, 39.6° (Epoch: 29 July)

Event Time Altitude Azimuth Distance (km) Brightness Sun altitude
Exits shadow 01:57:33 10° 243° (WSW) 2,321 5.5 -10.8°
Maximum altitude 02:02:22 33° 181° (S) 1,304 4.3 -10.3°
Drops below altitude 10° 02:07:16 10° 119° (ESE) 2,350 6.1 -9.9°
Sets 02:09:57 0° 110° (ESE) 3,281 7.0 -9.6°
